Regional Weather Roundup
Issued by NWS

Home | Current Version | Previous Version | Text Only | Print | Product List | Glossary Off
Versions: 1 2 3 4 5 6 7 8 9 10 11 12 13 14 15 16 17 18 19 20 21 22 23 24 25 26 27 28 29 30 31 32 33 34 35 36 37 38 39 40 41 42 43 44 45 46 47 48 49 50

000
ASUS45 KCYS 291910
RWRWY

WYOMING REGIONAL WEATHER ROUNDUP
NATIONAL WEATHER SERVICE CHEYENNE WY
1200 PM MST THU JAN 29 2015

NOTE:  "FAIR" INDICATES FEW OR NO CLOUDS BELOW 12,000 FEET
WITH NO SIGNIFICANT WEATHER AND/OR OBSTRUCTIONS TO VISIBILITY.

WYZ001-292000-
YELLOWSTONE NATIONAL PARK

CITY           SKY/WX    TMP DP  RH WIND       PRES   REMARKS
LK YELLOWSTONE   N/A     16  15  96 E3        30.42F
W YELLOWSTONE  NOT AVBL

$$
WYZ002>013-054>058-071-098>099-292000-
NORTHERN WYOMING

CITY           SKY/WX    TMP DP  RH WIND       PRES   REMARKS
JACKSON        MOSUNNY   27  21  80 CALM      30.43F
CODY           FAIR      41  25  52 S7        30.36F
GREYBULL       FOG       31  31 100 SW3       30.42F VSB 1/4
WORLAND        FAIR      35  29  78 CALM      30.41F
SHERIDAN       FAIR      45  26  47 NE5       30.38F
BUFFALO        FAIR      44  22  41 SE10      30.39F
GILLETTE       FAIR      43  21  41 S8        30.40F
HULETT           N/A    N/A N/A N/A MISG        N/A
NEWCASTLE      FAIR      36  21  55 NW7       30.45F WCI  30

$$
WYZ014>020-022>026-101>103-292000-
CENTRAL WYOMING

CITY           SKY/WX    TMP DP  RH WIND       PRES   REMARKS
BIG PINEY      FAIR      33  24  69 NE7       30.43F WCI  27
PINEDALE       FAIR      32  27  80 N6        30.43F WCI  26
DUBOIS         FAIR      32  18  55 CALM      30.38F
LANDER         FAIR      37  29  72 CALM      30.39F
RIVERTON       FAIR      38  31  76 CALM      30.41F
CASPER         FAIR      41  29  62 SE5       30.42F
DOUGLAS        FAIR      42  22  44 CALM      30.44F

$$
WYZ021-027>030-104>119-292000-
SOUTHERN WYOMING

CITY           SKY/WX    TMP DP  RH WIND       PRES   REMARKS
EVANSTON       FAIR      32  28  85 NE6       30.37F WCI  26
KEMMERER       CLOUDY    32  30  93 NE8       30.40F WCI  25
FORT BRIDGER   FOG       31  31 100 N7        30.42F VSB 1/4 WCI  24
ROCK SPRINGS   CLOUDY    30  29  96 E5        30.41F WCI  25
DIXON          FAIR      40  31  72 W3        30.42F
RAWLINS        FAIR      39  28  64 E5        30.41F
SARATOGA       FAIR      39  28  65 CALM      30.41F
LARAMIE        FAIR      34  26  72 SE9       30.42F WCI  27
CHEYENNE       PTSUNNY   40  24  53 SW6       30.45F
TORRINGTON     FAIR      45  18  34 CALM      30.46F
PINE BLUFFS    FAIR      43  18  36 N7        30.47F

$$



USA.gov is the U.S. government's official web portal to all federal, state and local government web resources and services.